K8JCL-13 Weather Reports


Display with metric or nautical units.
time (UTC)temp
F
wind
direction
speed
MPH
gust
MPH
rain 1hr
in
rain 24hr
in
rain mn
in
humidity
%
barometer
mb
20260507191437 57 261 3.0 5.0 0.00 0.00 0.00 45 1014.5
20260507190934 57 132 1.0 1.0 0.00 0.00 0.00 47 1014.5
20260507190432 57 36 2.0 2.0 0.00 0.00 0.00 48 1014.5
20260507185931 58 256 3.0 5.0 0.00 0.00 0.00 45 1014.6
20260507185428 58 276 7.0 8.0 0.00 0.00 0.00 44 1014.6
20260507184925 57 288 4.0 5.0 0.00 0.00 0.00 46 1014.7
20260507184422 58 330 3.0 5.0 0.00 0.00 0.00 46 1014.5
20260507183920 57 352 5.0 7.0 0.00 0.00 0.00 46 1014.6
20260507183416 58 327 3.0 5.0 0.00 0.00 0.00 47 1014.7
20260507182914 57 274 3.0 5.0 0.00 0.00 0.00 48 1015.0
20260507182409 57 298 1.0 1.0 0.00 0.00 0.00 50 1014.6
20260507181906 57 301 3.0 5.0 0.00 0.00 0.00 48 1014.8
20260507181402 56 339 4.0 9.0 0.00 0.00 0.00 48 1015.0
20260507180859 57 3 3.0 5.0 0.00 0.00 0.00 47 1014.6
20260507180356 57 289 3.0 5.0 0.00 0.00 0.00 48 1014.7
20260507175852 57 327 4.0 6.0 0.00 0.00 0.00 48 1014.9
20260507175349 57 359 3.0 5.0 0.00 0.00 0.00 50 1015.0
20260507174846 57 68 2.0 2.0 0.00 0.00 0.00 56 1015.1
20260507174343 56 247 3.0 3.0 0.00 0.00 0.00 50 1015.2
20260507173841 56 14 4.0 6.0 0.00 0.00 0.00 49 1015.1
20260507173338 57 71 4.0 6.0 0.00 0.00 0.00 49 1015.0
20260507172834 56 326 3.0 5.0 0.00 0.00 0.00 52 1015.1
20260507172331 56 358 1.0 2.0 0.00 0.00 0.00 52 1014.9
20260507171827 56 322 5.0 6.0 0.00 0.00 0.00 49 1015.2
20260507171324 56 288 3.0 3.0 0.00 0.00 0.00 51 1015.3
20260507170821 55 341 6.0 11.0 0.00 0.00 0.00 48 1015.4
20260507170317 56 276 6.0 7.0 0.00 0.00 0.00 47 1015.5
20260507165813 58 312 5.0 9.0 0.00 0.00 0.00 45 1015.2
20260507165309 57 10 2.0 3.0 0.00 0.00 0.00 54 1015.3
20260507164805 56 40 1.0 2.0 0.00 0.00 0.00 48 1015.6
20260507164303 55 295 3.0 3.0 0.00 0.00 0.00 50 1015.6
20260507163800 55 300 4.0 5.0 0.00 0.00 0.00 52 1015.5
20260507163257 55 299 2.0 2.0 0.00 0.00 0.00 52 1015.4
20260507162753 56 301 2.0 3.0 0.00 0.00 0.00 53 1015.6
20260507162249 55 255 2.0 3.0 0.00 0.00 0.00 51 1015.4
20260507161747 55 8 4.0 7.0 0.00 0.00 0.00 51 1015.6
20260507161243 54 301 5.0 5.0 0.00 0.00 0.00 51 1015.6
20260507160739 54 355 1.0 1.0 0.00 0.00 0.00 51 1015.8
20260507160236 55 280 3.0 5.0 0.00 0.00 0.00 52 1015.5
20260507155731 54 291 1.0 2.0 0.00 0.00 0.00 56 1015.7
20260507155227 54 288 3.0 5.0 0.00 0.00 0.00 52 1015.6
20260507154724 53 355 3.0 3.0 0.00 0.00 0.00 55 1015.7
20260507154222 53 293 4.0 6.0 0.00 0.00 0.00 52 1015.8
20260507153718 53 357 7.0 8.0 0.00 0.00 0.00 51 1015.5
20260507153215 53 300 5.0 8.0 0.00 0.00 0.00 53 1015.6
20260507152712 54 339 3.0 3.0 0.00 0.00 0.00 52 1015.6
20260507152207 53 298 3.0 3.0 0.00 0.00 0.00 53 1015.5
20260507151704 53 320 2.0 2.0 0.00 0.00 0.00 54 1015.5
20260507151200 53 19 6.0 8.0 0.00 0.00 0.00 50 1015.5
20260507150657 53 331 2.0 2.0 0.00 0.00 0.00 51 1015.5
20260507150154 53 261 3.0 5.0 0.00 0.00 0.00 50 1015.6
20260507145650 52 299 4.0 6.0 0.00 0.00 0.00 52 1015.6
20260507145147 52 304 3.0 5.0 0.00 0.00 0.00 52 1015.5
20260507144643 52 342 4.0 5.0 0.00 0.00 0.00 52 1015.5
20260507144142 52 284 3.0 3.0 0.00 0.00 0.00 49 1015.7
20260507143638 52 299 2.0 2.0 0.00 0.00 0.00 51 1015.7
20260507143135 52 257 3.0 3.0 0.00 0.00 0.00 54 1015.5
20260507142630 52 272 3.0 3.0 0.00 0.00 0.00 54 1015.5
20260507142128 52 289 4.0 5.0 0.00 0.00 0.00 52 1015.5
20260507141624 52 335 5.0 6.0 0.00 0.00 0.00 53 1015.5
20260507141121 51 351 4.0 5.0 0.00 0.00 0.00 53 1015.6
20260507140617 51 281 2.0 3.0 0.00 0.00 0.00 56 1015.5
20260507140115 51 318 2.0 3.0 0.00 0.00 0.00 56 1015.6
20260507135612 51 283 3.0 3.0 0.00 0.00 0.00 55 1015.7
20260507135109 50 348 2.0 2.0 0.00 0.00 0.00 58 1015.5
20260507134605 50 276 3.0 3.0 0.00 0.00 0.00 59 1015.5
20260507134101 49 20 2.0 3.0 0.00 0.00 0.00 57 1015.6
20260507133557 49 314 3.0 5.0 0.00 0.00 0.00 60 1015.5
20260507133055 50 334 4.0 5.0 0.00 0.00 0.00 62 1015.5
20260507132552 50 324 1.0 1.0 0.00 0.00 0.00 66 1015.7
20260507132048 49 310 3.0 3.0 0.00 0.00 0.00 66 1015.7
20260507131545 49 294 4.0 6.0 0.00 0.00 0.00 68 1015.6
20260507131043 48 10 3.0 3.0 0.00 0.00 0.00 70 1015.8
20260507130539 48 16 2.0 3.0 0.00 0.00 0.00 74 1015.6
20260507130038 48 342 1.0 1.0 0.00 0.00 0.00 73 1015.7
20260507125536 47 21 2.0 2.0 0.00 0.00 0.00 75 1015.6
20260507125033 47 349 2.0 3.0 0.00 0.00 0.00 75 1015.7
20260507124529 47 335 0.0 1.0 0.00 0.00 0.00 77 1015.8
20260507124027 46 318 1.0 2.0 0.00 0.00 0.00 77 1015.7
20260507123525 46 6 2.0 2.0 0.00 0.00 0.00 77 1015.5
20260507123021 45 279 2.0 2.0 0.00 0.00 0.00 79 1015.3
20260507122516 45 336 2.0 2.0 0.00 0.00 0.00 79 1015.5
20260507122013 45 325 2.0 3.0 0.00 0.00 0.00 78 1015.4
20260507121508 44 244 2.0 2.0 0.00 0.00 0.00 80 1015.4
20260507121004 44 349 3.0 3.0 0.00 0.00 0.00 80 1015.5
20260507120500 44 322 1.0 1.0 0.00 0.00 0.00 81 1015.4
20260507115957 44 343 2.0 2.0 0.00 0.00 0.00 83 1015.5
20260507115454 43 318 1.0 1.0 0.00 0.00 0.00 82 1015.4
20260507114950 43 341 2.0 2.0 0.00 0.00 0.00 82 1015.5
20260507114446 43 1 3.0 3.0 0.00 0.00 0.00 84 1015.5
20260507113944 43 336 1.0 2.0 0.00 0.00 0.00 85 1015.6
20260507113440 42 328 1.0 1.0 0.00 0.00 0.00 86 1015.5
20260507112938 42 286 0.0 1.0 0.00 0.00 0.00 87 1015.5
20260507112435 42 347 1.0 2.0 0.00 0.00 0.00 88 1015.4
20260507111932 41 329 0.0 1.0 0.00 0.00 0.00 89 1015.4
20260507111429 41 344 0.0 1.0 0.00 0.00 0.00 91 1015.1
20260507110925 40 343 0.0 0.0 0.00 0.00 0.00 93 1015.3
20260507110422 40 355 0.0 1.0 0.00 0.00 0.00 95 1015.2
20260507105919 39 332 1.0 1.0 0.00 0.00 0.00 97 1015.3
20260507105415 39 356 0.0 0.0 0.00 0.00 0.00 98 1015.1
20260507104912 38 4 0.0 0.0 0.00 0.00 0.00 98 1015.1
20260507104409 38 20 0.0 0.0 0.00 0.00 0.00 98 1014.9
20260507103904 38 15 0.0 0.0 0.00 0.00 0.00 98 1015.1
20260507103402 39 17 0.0 0.0 0.00 0.00 0.00 98 1014.9
20260507102858 39 348 0.0 0.0 0.00 0.00 0.00 98 1014.9
20260507102354 39 14 0.0 0.0 0.00 0.00 0.00 98 1014.9
20260507101851 39 17 0.0 0.0 0.00 0.00 0.00 98 1015.0
20260507101351 39 7 0.0 0.0 0.00 0.00 0.00 98 1014.8
20260507100848 39 10 0.0 0.0 0.00 0.00 0.00 98 1014.9
20260507100346 39 16 0.0 0.0 0.00 0.00 0.00 98 1014.9
20260507095844 39 3 0.0 0.0 0.00 0.00 0.00 98 1015.0
20260507095340 40 7 0.0 0.0 0.00 0.00 0.00 98 1015.0
20260507094837 39 350 0.0 0.0 0.00 0.00 0.00 98 1014.9
20260507094334 39 11 0.0 0.0 0.00 0.00 0.00 98 1015.0
20260507093831 40 18 0.0 0.0 0.00 0.00 0.00 98 1014.9
20260507093329 40 17 0.0 0.0 0.00 0.00 0.00 98 1014.9
20260507092827 40 21 0.0 0.0 0.00 0.00 0.00 98 1014.7
20260507092323 39 17 0.0 0.0 0.00 0.00 0.00 98 1014.7
20260507091820 39 18 0.0 0.0 0.00 0.00 0.00 98 1014.9
20260507091316 39 13 0.0 0.0 0.00 0.00 0.00 98 1014.9
20260507090811 39 16 0.0 0.0 0.00 0.00 0.00 98 1014.6
20260507090308 39 19 0.0 0.0 0.00 0.00 0.00 98 1014.8
20260507085805 40 25 0.0 0.0 0.00 0.00 0.00 98 1014.4
20260507085306 40 12 0.0 0.0 0.00 0.00 0.00 98 1014.8
20260507084800 40 15 0.0 0.0 0.00 0.00 0.00 98 1014.7
20260507084255 40 20 0.0 0.0 0.00 0.00 0.00 97 1014.4
20260507083753 40 14 0.0 0.0 0.00 0.00 0.00 97 1014.4
20260507083250 41 11 0.0 0.0 0.00 0.00 0.00 97 1014.5
20260507082746 41 17 0.0 0.0 0.00 0.00 0.00 97 1014.5
20260507082242 41 359 0.0 0.0 0.00 0.00 0.00 97 1014.4
20260507081738 41 9 0.0 0.0 0.00 0.00 0.00 97 1014.6
20260507081234 41 12 0.0 0.0 0.00 0.00 0.00 97 1014.6
20260507080731 41 12 0.0 0.0 0.00 0.00 0.00 97 1014.6
20260507080227 41 2 0.0 0.0 0.00 0.00 0.00 97 1014.6
20260507075723 41 10 0.0 0.0 0.00 0.00 0.00 97 1014.4
20260507075220 41 9 0.0 0.0 0.00 0.00 0.00 96 1014.7
20260507074716 42 11 0.0 0.0 0.00 0.00 0.00 96 1014.6
20260507074214 42 20 0.0 0.0 0.00 0.00 0.00 96 1014.5
20260507073710 42 7 0.0 0.0 0.00 0.00 0.00 96 1014.6
20260507073206 42 6 0.0 0.0 0.00 0.00 0.00 97 1014.4
20260507072705 42 14 0.0 0.0 0.00 0.00 0.00 96 1014.6
20260507072202 43 23 0.0 0.0 0.00 0.00 0.00 96 1014.7
20260507071659 43 11 0.0 0.0 0.00 0.00 0.00 96 1014.5
20260507071155 43 353 0.0 0.0 0.00 0.00 0.00 96 1014.5
20260507070653 43 14 0.0 0.0 0.00 0.00 0.00 96 1014.6
20260507070149 44 340 0.0 0.0 0.00 0.00 0.00 96 1014.3
20260507065646 44 8 0.0 0.0 0.00 0.00 0.00 97 1014.5
20260507065143 44 6 0.0 0.0 0.00 0.00 0.00 97 1014.7
20260507064640 44 8 0.0 0.0 0.00 0.00 0.00 98 1014.7
20260507064139 44 10 0.0 0.0 0.00 0.00 0.00 98 1014.7
20260507063636 43 344 1.0 1.0 0.00 0.00 0.00 98 1014.7
20260507063133 43 6 0.0 0.0 0.00 0.00 0.00 98 1014.7
20260507062629 42 15 0.0 0.0 0.00 0.00 0.00 98 1015.0
20260507062128 42 12 0.0 0.0 0.00 0.00 0.00 98 1014.9
20260507061625 41 14 0.0 0.0 0.00 0.00 0.00 97 1015.0
20260507061123 41 15 0.0 0.0 0.00 0.00 0.00 97 1014.8
20260507060621 42 11 0.0 0.0 0.00 0.00 0.00 97 1014.8
20260507060117 42 9 0.0 0.0 0.00 0.00 0.00 97 1014.7
20260507055612 42 11 0.0 0.0 0.00 0.00 0.00 96 1014.5
20260507055109 42 5 0.0 0.0 0.00 0.00 0.00 96 1014.8
20260507054604 42 9 0.0 0.0 0.00 0.00 0.00 96 1014.9
20260507054102 42 7 0.0 0.0 0.00 0.00 0.00 95 1014.8
20260507053559 43 4 0.0 0.0 0.00 0.00 0.00 95 1014.7
20260507053058 43 4 0.0 0.0 0.00 0.00 0.00 94 1015.0
20260507052556 43 15 0.0 0.0 0.00 0.00 0.00 94 1014.9
20260507052052 44 10 0.0 0.0 0.00 0.00 0.00 93 1015.0
20260507051549 44 4 0.0 0.0 0.00 0.00 0.00 93 1014.9
20260507051046 44 4 0.0 0.0 0.00 0.00 0.00 93 1015.1
20260507050543 44 5 0.0 0.0 0.00 0.00 0.00 93 1015.1
20260507050039 44 4 0.0 0.0 0.00 0.00 0.00 93 1015.1
20260507045536 44 6 0.0 0.0 0.00 0.00 0.00 92 1014.9
20260507045033 44 6 0.0 0.0 0.00 0.00 0.00 91 1015.1
20260507044530 45 5 0.0 0.0 0.00 0.00 0.00 90 1015.0
20260507044027 45 4 0.0 0.0 0.00 0.00 0.00 90 1015.0
20260507043523 45 2 0.0 0.0 0.00 0.00 0.00 90 1014.7
20260507043020 45 6 0.0 0.0 0.00 0.00 0.00 90 1015.1
20260507042516 44 6 0.0 0.0 0.00 0.00 0.00 88 1014.9
20260507042011 45 6 0.0 0.0 0.00 0.00 0.00 88 1014.9
20260507041509 45 4 0.0 0.0 0.00 0.00 0.00 88 1014.8
20260507041006 45 5 0.0 0.0 0.00 0.00 0.00 87 1014.7
20260507040501 45 4 0.0 0.0 0.00 0.00 0.00 87 1014.6
20260507035957 45 4 0.0 0.0 0.00 0.43 0.43 87 1014.8
20260507035454 46 6 0.0 0.0 0.00 0.43 0.43 87 1014.5
20260507034951 46 4 0.0 0.0 0.00 0.43 0.43 87 1014.8
20260507034448 46 5 0.0 0.0 0.00 0.43 0.43 86 1014.9
20260507033946 46 5 0.0 0.0 0.00 0.43 0.43 85 1014.9
20260507033443 47 10 0.0 0.0 0.00 0.43 0.43 85 1014.8
20260507032940 47 2 0.0 0.0 0.00 0.43 0.43 85 1014.7
20260507032437 47 3 0.0 0.0 0.00 0.43 0.43 85 1014.7
20260507031933 47 4 0.0 0.0 0.00 0.43 0.43 84 1014.9
20260507031430 47 5 0.0 0.0 0.00 0.43 0.43 86 1014.9
20260507030927 46 5 0.0 0.0 0.00 0.43 0.43 85 1014.7
20260507030424 47 5 0.0 0.0 0.00 0.43 0.43 86 1014.7
20260507025921 47 5 0.0 0.0 0.00 0.43 0.43 85 1014.9
20260507025418 46 5 0.0 0.0 0.00 0.43 0.43 85 1015.0
20260507024916 46 5 0.0 0.0 0.00 0.43 0.43 84 1015.1
20260507024413 46 7 0.0 0.0 0.00 0.43 0.43 85 1015.1
20260507023909 47 6 0.0 0.0 0.00 0.43 0.43 85 1015.0
20260507023406 47 7 0.0 0.0 0.00 0.43 0.43 84 1014.9
20260507022903 47 8 0.0 0.0 0.00 0.43 0.43 83 1015.0
20260507022400 47 4 0.0 0.0 0.00 0.43 0.43 82 1014.9
20260507021856 47 3 0.0 0.0 0.00 0.43 0.43 83 1014.9
20260507021351 47 2 0.0 0.0 0.00 0.43 0.43 81 1014.7
20260507020849 48 2 0.0 0.0 0.00 0.43 0.43 84 1014.6
20260507020345 48 6 0.0 0.0 0.00 0.43 0.43 81 1014.7
20260507015842 48 2 0.0 0.0 0.00 0.43 0.43 79 1014.7
20260507015340 48 2 0.0 0.0 0.00 0.43 0.43 81 1014.5
20260507014837 48 358 0.0 0.0 0.00 0.43 0.43 80 1014.6
20260507014333 49 2 0.0 0.0 0.00 0.43 0.43 82 1014.4
20260507013830 49 3 0.0 0.0 0.00 0.43 0.43 80 1014.3
20260507013327 49 4 0.0 0.0 0.00 0.43 0.43 78 1014.3
20260507012825 50 1 0.0 0.0 0.00 0.43 0.43 78 1014.5
20260507012320 50 2 0.0 0.0 0.00 0.43 0.43 77 1014.4
20260507011818 50 0 0.0 0.0 0.00 0.43 0.43 76 1014.4
20260507011315 51 2 0.0 0.0 0.00 0.43 0.43 77 1014.1
20260507010814 51 3 0.0 0.0 0.00 0.43 0.43 77 1014.4
20260507010310 51 3 0.0 0.0 0.00 0.43 0.43 77 1014.3
20260507005808 51 5 0.0 0.0 0.00 0.43 0.43 79 1014.3
20260507005306 51 358 0.0 0.0 0.00 0.43 0.43 81 1014.4
20260507004801 51 4 0.0 0.0 0.00 0.43 0.43 79 1014.4
20260507004258 51 4 0.0 0.0 0.00 0.43 0.43 79 1014.2
20260507003754 51 4 0.0 0.0 0.00 0.43 0.43 75 1014.1
20260507003250 51 3 0.0 0.0 0.00 0.43 0.43 75 1014.1
20260507002746 52 5 0.0 0.0 0.00 0.43 0.43 74 1013.9
20260507002242 52 5 0.0 0.0 0.00 0.43 0.43 72 1013.9
20260507001739 53 4 0.0 0.0 0.00 0.43 0.43 71 1013.8
20260507001237 53 4 0.0 0.0 0.00 0.43 0.43 71 1014.0
20260507000733 54 4 0.0 0.0 0.00 0.43 0.43 68 1013.6
20260507000229 54 4 0.0 0.0 0.00 0.43 0.43 67 1013.7
20260506235725 54 1 0.0 0.0 0.00 0.43 0.43 65 1013.7
20260506235221 55 5 0.0 0.0 0.00 0.43 0.43 65 1013.7
20260506234718 55 8 0.0 0.0 0.00 0.43 0.43 64 1013.7
20260506234215 55 356 0.0 1.0 0.00 0.43 0.43 63 1013.6
20260506233713 55 4 0.0 0.0 0.00 0.43 0.43 67 1013.4
20260506233209 55 349 1.0 1.0 0.00 0.43 0.43 62 1013.5
20260506232707 55 2 0.0 0.0 0.00 0.43 0.43 62 1013.7
20260506232201 55 8 1.0 1.0 0.00 0.43 0.43 60 1013.5
20260506231658 55 14 1.0 1.0 0.00 0.43 0.43 60 1013.7
20260506231157 55 333 1.0 1.0 0.00 0.43 0.43 61 1013.9
20260506230653 55 345 2.0 2.0 0.00 0.43 0.43 60 1013.6
20260506230149 55 282 2.0 2.0 0.00 0.43 0.43 62 1013.6
20260506225646 56 311 2.0 3.0 0.00 0.43 0.43 58 1013.6
20260506225143 56 351 1.0 2.0 0.00 0.43 0.43 59 1013.6
20260506224640 57 321 1.0 2.0 0.00 0.43 0.43 58 1013.8
20260506224136 56 18 0.0 0.0 0.00 0.43 0.43 59 1014.0
20260506223633 56 339 2.0 2.0 0.00 0.43 0.43 57 1014.0
20260506223128 56 350 2.0 2.0 0.00 0.43 0.43 57 1013.9
20260506222626 56 310 0.0 1.0 0.00 0.43 0.43 60 1013.9
20260506222122 56 341 2.0 3.0 0.00 0.43 0.43 57 1013.9
20260506221620 56 358 1.0 1.0 0.00 0.43 0.43 59 1013.9
20260506221118 56 351 2.0 2.0 0.00 0.43 0.43 60 1014.2
20260506220614 56 5 1.0 1.0 0.00 0.43 0.43 60 1014.0
20260506220109 56 354 1.0 2.0 0.00 0.43 0.43 60 1014.1
20260506215606 56 327 1.0 1.0 0.00 0.43 0.43 60 1014.0
20260506215101 56 268 2.0 3.0 0.00 0.43 0.43 59 1013.7
20260506214559 56 270 1.0 2.0 0.00 0.43 0.43 61 1013.9
20260506214056 56 328 2.0 2.0 0.00 0.43 0.43 58 1013.9
20260506213554 56 18 1.0 1.0 0.00 0.43 0.43 57 1014.0
20260506213051 56 10 3.0 5.0 0.00 0.43 0.43 56 1013.7
20260506212548 56 6 2.0 2.0 0.00 0.43 0.43 58 1013.8
20260506212043 56 6 1.0 2.0 0.00 0.43 0.43 58 1013.7
20260506211539 56 278 1.0 2.0 0.00 0.43 0.43 60 1013.6
20260506211036 56 32 1.0 1.0 0.00 0.43 0.43 59 1013.6
20260506210532 56 332 1.0 1.0 0.00 0.43 0.43 60 1013.6
20260506210029 56 350 3.0 3.0 0.00 0.43 0.43 60 1013.4
20260506205526 56 315 2.0 2.0 0.00 0.43 0.43 59 1013.7
20260506205021 56 331 2.0 2.0 0.00 0.43 0.43 58 1013.5
20260506204519 56 36 1.0 2.0 0.00 0.43 0.43 58 1013.5
20260506204016 56 300 0.0 1.0 0.00 0.43 0.43 59 1013.6
20260506203514 56 10 0.0 1.0 0.00 0.43 0.43 58 1013.5
20260506203010 56 6 2.0 2.0 0.00 0.43 0.43 60 1013.5
20260506202508 56 11 1.0 1.0 0.00 0.43 0.43 57 1013.7
20260506201958 56 0 2.0 2.0 0.00 0.43 0.43 57 1013.4
20260506201456 56 333 2.0 2.0 0.00 0.43 0.43 60 1013.6
20260506200952 56 301 2.0 2.0 0.00 0.43 0.43 61 1013.7
20260506200449 56 327 2.0 2.0 0.00 0.43 0.43 61 1013.5
20260506195945 56 342 2.0 2.0 0.00 0.43 0.43 57 1013.6
20260506195442 56 358 5.0 6.0 0.00 0.43 0.43 58 1013.4
20260506194939 57 311 3.0 3.0 0.00 0.43 0.43 59 1013.4
20260506194437 57 344 1.0 1.0 0.00 0.43 0.43 57 1013.4
20260506193933 57 15 3.0 3.0 0.00 0.43 0.43 57 1013.4
20260506193430 57 319 3.0 5.0 0.00 0.43 0.43 57 1013.2
20260506192927 57 306 3.0 5.0 0.00 0.43 0.43 57 1013.1
20260506192424 57 293 3.0 3.0 0.00 0.43 0.43 56 1013.1
20260506191920 57 302 2.0 3.0 0.00 0.43 0.43 55 1013.3